Showing default

GCOM W1, 38337

Orbit data source: Space-Track

GCOM W1, 38337 is a payload satellite owned by JAXA (JP) in SSO that was launched on Thu, 17 May 2012 UTC via an H-IIA 202 launch vehicle from the Tanegashima Space Center (TNSTA). Payload-class satellites include a variety of spacecraft equipped with specific instruments for various scientific and technological missions. These include communications satellites like Starlink; space stations such as the ISS; scientific satellites like the Hubble; Earth observation satellites from companies like Planet Labs, Umbra, and HawkEye 360; GPS; miniature CubeSats for education and research; and military/defense satellites.

Loading next visibility...
Identifier
38337, 2012-025A
Orbit
SSO
Last TLE update
10 hours ago
Origin
Manufacturer
NECTF?
Mission
Operational Civil Science
Bus & Motor
GCOM, AOCS
Mass
1,991 kg wet, 1,841 kg dry
Launch date (UTC)
2012-05-17 (13 years ago)
Launch vehicle
H-IIA 202
Launch site
Tanegashima Space Center (TNSTA)
Object type
Payload
Rocket body
Debris
Shape & HBR
Box + 2 Pan + 1 Dish, 17.5 m
Radar Cross Section
35.969 m², Large (>1 m²)

Expand to show TLE details & history

TLE from 10 hours ago
0 GCOM W1
1 38337U 12025A   25181.85772954  .00000349  00000-0  87438-4 0  9998
2 38337  98.2020 122.4333 0001316  75.2416 350.7499 14.57132531697877
Epoch: 2025-06-30T20:35Z
TLE epoch observation values (Epoch: 2025-06-30T20:35:07.832Z)
Latitude
64.79588°
Longitude
-123.24539°
Altitude
712.693 km
Speed
7.506 km/s
True Right ascension
06h 58m 47s
True Declination
64° 39' 44"
Sunlit
Object was in daylight at epoch
Visualization orbit readout
Latitude
-0.40583°
Longitude
-105.05946°
Altitude
705.229 km
Speed
7.503 km/s
Apparent Right ascension
07h 13m 16s
Apparent Declination
-19° 50' 35"
Sunlit
Object is in daylight
Visualization observer readout
Local Sidereal Time
17:47:58
Azimuth
311.431° NW
Elevation
-62.856°
Doppler factor
1
Orbital elements
Apogee altitude
700.465 km
Perigee altitude
698.602 km
Semi-major axis
7,077.67 km
Eccentricity
0.00013
Inclination
98.202°
RAAN
122.4333°
Arg. of periapsis
75.2416°
True anomaly
Unknown
Mean anomaly
350.7499°
Eccentric anomaly
Unknown
Mean motion
3.64509 °/min
Orbital period
98.76 mins
BSTAR
0.000087438
Loading maneuver chart data...
Loading SW <> Apogee altitude chart data...
Loading historical data...
Loading historical data...
Loading historical data...
Loading historical data...
Loading historical data...
Loading historical data...
Loading historical data...

GCOM W1 Visibility forecast

Observer location: undefined°, undefined°

Span
Click to sort rows by Start time (UTC) header in descending order
Start Az.
Max El. time (UTC)
Max El. Az.
Max El.
End time (UTC)
End Az.
8 mins2025-07-01 08:24:13.542Z32.809° NE2025-07-01 08:28:13.542Z110.503° ESE32.441°2025-07-01 08:32:13.542Z167.998° S
5 mins2025-07-01 10:03:13.542Z327.429° NNW2025-07-01 10:05:13.542Z295.715° NW19.602°2025-07-01 10:08:13.542Z251.615° W
7 mins2025-07-01 19:30:13.542Z129.537° SE2025-07-01 19:33:13.542Z61.715° ENE33.083°2025-07-01 19:37:13.542Z2.557° NNE
4 mins2025-07-01 21:09:13.542Z240.671° WSW2025-07-01 21:11:13.542Z273.216° WNW18.289°2025-07-01 21:13:13.542Z302.484° NW
|